EHI
0 0 0 0 0 0 0 0 0 0 0 0 0 0 0 0 0 0 2 4 4 4 6 10 12 13 17 19 19 18 16 12 11 11 10 9 7 6 5 4 2 3 3 3 3 3 3 3 3
0 0 0 0 0 0 0 0 0 0 0 0 0 0 0 0 0 0 2 5 6 6 7 8 11 14 16 18 18 18 16 13 11 11 10 9 7 6 6 5 4 4 4 3 3 2 2 2 2
0 0 0 0 0 0 0 0 0 0 0 0 0 0 0 0 0 0 3 6 8 8 8 9 13 15 16 16 17 18 16 13 11 11 11 9 7 6 6 5 4 4 4 3 1 1 1 1 1
0 0 0 0 0 0 0 0 0 0 0 0 0 0 0 0 0 1 5 8 8 9 10 12 16 18 18 18 17 18 15 12 10 11 11 8 6 5 4 4 4 4 4 3 1 0 0 0 0
0 0 0 0 0 0 0 0 0 0 0 0 0 0 0 0 0 3 7 9 9 9 11 14 18 20 20 19 18 18 15 11 10 10 9 7 5 4 3 3 3 3 3 2 1 0 0 0 0
0 0 0 0 0 0 0 0 0 0 0 0 0 0 0 0 1 4 8 9 9 10 11 14 17 19 19 18 18 18 15 12 10 9 8 6 4 3 3 3 3 3 3 2 1 0 0 0 0
0 0 0 0 0 0 0 0 0 0 0 0 0 0 0 0 1 3 7 9 11 12 13 15 15 15 15 16 17 18 15 12 11 10 8 6 5 4 3 3 3 3 3 2 0 0 0 0 0
0 0 0 0 0 0 0 0 0 0 0 0 0 0 0 0 0 2 6 10 11 12 14 15 14 13 12 12 13 14 12 9 9 8 6 4 3 3 3 3 3 3 3 2 1 0 0 0 0
0 0 0 0 0 0 0 0 0 0 0 0 0 0 0 0 0 1 5 8 9 10 12 13 13 12 10 8 8 8 6 5 5 4 3 2 2 2 2 3 3 3 3 2 1 0 0 0 0
0 0 0 0 0 0 0 0 0 0 0 0 0 0 0 0 0 1 2 4 5 7 10 10 10 11 10 8 5 4 3 2 1 1 1 1 0 1 1 1 2 2 1 1 1 0 0 0 0
0 0 0 0 0 0 0 0 0 0 0 0 0 0 0 0 0 0 1 1 3 5 7 7 8 9 10 9 6 2 1 0 0 0 0 0 0 0 0 0 1 1 0 0 0 0 0 0 0
0 0 0 0 0 0 0 0 0 0 0 0 0 0 0 0 0 0 0 0 1 2 4 6 7 7 9 9 7 2 0 0 0 0 0 0 0 0 0 0 0 0 0 0 0 0 0 0 0
0 0 0 0 0 0 0 0 0 0 0 0 0 0 0 0 0 0 0 0 0 1 3 5 6 6 7 7 5 2 0 0 0 0 0 0 0 0 0 0 0 0 0 0 0 0 0 0 0
0 0 0 0 0 0 0 0 0 0 0 0 0 0 0 0 0 0 0 0 0 0 2 4 6 5 5 5 4 2 1 1 0 0 0 1 1 0 0 0 0 0 0 0 0 0 0 0 0
0 0 0 0 0 0 0 0 0 0 0 0 0 0 0 0 0 0 0 0 0 0 1 3 4 4 4 4 3 3 2 1 0 0 0 1 1 0 0 0 0 0 0 0 0 0 0 0 0
0 0 0 0 0 0 0 0 0 0 0 0 0 0 0 0 0 0 0 0 0 0 1 2 3 3 3 3 3 3 3 1 0 0 0 0 0 0 0 0 0 0 0 0 0 0 0 0 0
0 0 0 0 0 0 0 0 0 0 0 0 0 0 0 0 0 0 0 0 0 0 0 1 3 3 3 2 3 3 3 1 0 0 0 0 0 0 0 0 0 0 0 0 0 0 0 0 0
0 0 0 0 0 0 0 0 0 0 0 0 0 0 0 0 0 0 0 0 0 0 0 1 3 4 2 1 1 2 2 1 0 0 0 0 0 0 0 0 0 0 0 0 0 0 0 0 0
0 0 0 0 0 0 0 0 0 0 0 0 0 0 0 0 0 0 0 0 0 0 0 1 3 4 3 1 0 1 1 1 0 0 0 0 0 0 0 0 0 0 0 0 0 0 0 0 0
0 0 0 0 0 0 0 0 0 0 0 0 0 0 0 0 0 0 0 0 0 0 0 0 1 3 3 1 0 0 0 0 0 0 0 0 0 0 0 0 0 0 0 0 0 0 0 0 0
0 0 0 0 0 0 0 0 0 0 0 0 0 0 0 0 0 0 0 0 0 0 0 0 1 3 3 2 1 0 0 0 0 0 0 0 0 0 0 0 0 0 0 0 0 0 0 0 0
0 0 0 0 0 0 0 0 0 0 0 0 0 0 0 0 0 0 0 0 0 0 0 0 2 4 4 3 2 1 0 0 0 0 0 0 0 0 0 0 0 0 0 0 0 0 0 0 0
0 0 0 0 0 0 0 0 0 0 0 0 0 0 0 0 0 0 0 0 0 0 0 0 1 2 3 3 2 1 0 0 0 0 0 0 0 0 0 0 0 0 0 0 0 0 0 0 0
0 0 0 0 0 0 0 0 0 0 0 0 0 0 0 0 0 0 0 0 0 0 0 0 0 1 2 3 2 1 1 0 0 0 0 0 0 0 0 0 0 0 0 0 0 0 0 0 0
0 0 0 0 0 0 0 0 0 0 0 0 0 0 0 0 0 0 0 0 0 0 0 0 0 1 2 2 1 0 0 0 0 0 0 0 0 0 0 0 0 0 0 0 0 0 0 0 0
0 0 0 0 0 0 0 0 0 0 0 0 0 0 0 0 0 0 0 0 0 0 0 0 0 0 1 1 0 0 0 0 0 0 0 0 0 0 0 0 0 0 0 0 0 0 0 0 0
0 0 0 0 0 0 0 0 0 0 0 0 0 0 0 0 0 0 0 0 0 0 0 0 0 0 0 0 0 0 0 0 0 0 0 0 0 0 0 0 0 0 0 0 0 0 0 0 0
0 0 0 0 0 0 0 0 0 0 0 0 0 0 0 0 0 0 0 0 0 0 0 0 0 0 0 0 0 1 0 0 0 0 0 0 0 0 0 0 0 0 0 0 0 0 0 0 0
0 0 0 0 0 0 0 0 0 0 0 0 0 0 0 0 0 0 0 0 0 0 0 0 0 0 0 0 0 0 0 0 0 0 0 0 0 0 0 0 0 0 0 0 0 0 0 0 0
0 0 0 0 0 0 0 0 0 0 0 0 0 0 0 0 0 0 0 0 0 0 0 0 0 0 0 0 0 0 0 0 0 0 0 0 0 0 0 0 0 0 0 0 0 0 0 0 0
Wind_Speed
8 5 2 4 6 4 3 5 3 1 1 1 1 5 6 4 3 4 2 6 9 9 8 10 11 11 10 11 11 11 11 12 12 11 11 11 11 11 11 11 11 10 11 11 11 11 11 11 11
4 3 4 5 5 2 5 5 4 4 3 0 2 3 4 2 1 4 3 7 11 10 8 8 11 11 10 11 11 11 11 11 12 11 11 11 11 11 11 11 10 10 11 11 10 11 10 10 10
4 2 4 4 4 7 6 4 5 3 3 0 1 3 3 2 2 4 4 10 10 9 8 8 11 10 10 10 11 11 11 11 11 11 11 11 11 11 11 10 10 10 10 10 10 10 9 9 10
3 4 4 3 6 6 5 4 2 1 2 2 2 2 1 0 2 3 7 10 11 8 7 8 11 10 9 10 10 10 11 11 11 11 11 11 11 10 10 10 10 10 10 10 9 9 9 9 9
4 4 3 2 6 5 4 4 3 2 1 1 2 2 1 4 1 5 8 10 11 8 7 8 11 10 9 9 9 10 10 10 11 11 10 11 10 11 10 10 10 10 9 9 9 9 8 8 8
4 4 3 5 7 4 4 3 2 2 2 1 2 2 1 2 3 4 7 8 9 9 7 7 10 10 9 9 9 9 9 10 10 10 10 10 10 10 10 10 10 9 9 9 8 8 7 7 7
4 4 4 5 4 4 4 2 2 2 1 2 2 3 1 2 1 3 5 7 7 7 6 6 6 7 8 8 8 8 8 9 10 10 10 9 9 10 10 10 9 9 9 8 8 7 6 6 6
4 4 3 3 4 5 2 1 1 1 2 2 2 5 4 3 2 4 5 6 6 5 5 5 5 5 5 5 6 7 7 9 9 9 8 8 8 9 9 8 8 9 8 7 7 6 6 6 5
3 3 4 4 4 3 1 0 2 1 1 2 1 2 3 3 4 5 5 5 4 5 4 5 5 5 4 4 5 5 6 7 8 8 9 7 4 5 6 6 7 8 8 7 7 6 6 4 4
3 4 6 3 2 2 1 1 2 1 1 1 2 2 2 4 5 5 4 5 6 5 5 4 5 5 5 4 3 3 3 4 4 4 5 4 3 3 5 6 7 7 7 7 6 6 4 3 1
3 5 3 2 1 1 1 3 2 1 2 3 3 2 2 3 4 4 3 4 5 5 5 5 6 6 5 3 3 2 2 2 3 5 5 4 3 3 3 3 3 4 4 3 3 3 1 1 1
2 3 2 2 1 1 2 2 3 3 5 3 3 3 3 2 3 4 4 3 3 4 5 5 5 5 5 4 3 3 2 3 3 4 5 5 3 3 3 2 2 2 2 2 2 1 1 1 1
3 2 2 2 1 2 1 3 3 5 5 1 1 2 3 3 2 3 3 3 2 4 4 4 5 5 5 5 4 4 3 3 3 3 5 5 4 4 4 3 3 3 2 3 3 2 2 1 1
2 2 3 3 3 2 3 4 3 7 3 2 2 3 4 4 4 3 2 3 3 3 4 3 4 5 5 4 4 4 4 4 4 4 5 6 5 5 4 4 4 3 3 3 3 3 3 2 1
0 2 4 3 2 1 0 5 7 7 2 2 3 4 4 5 4 5 5 4 4 3 3 3 4 4 4 4 5 4 4 4 4 4 5 7 6 6 5 5 4 4 4 3 3 2 2 2 1
2 1 3 4 2 1 2 8 6 4 3 4 4 4 4 5 4 5 4 4 4 3 3 3 3 3 4 3 3 3 4 4 4 4 4 6 7 7 6 5 5 5 4 3 3 3 2 2 2
1 2 4 4 2 1 3 8 7 3 3 5 5 5 4 4 4 4 4 4 4 3 3 3 2 3 3 3 3 3 3 4 4 4 4 5 6 7 6 5 5 5 4 4 4 3 3 3 2
4 4 4 5 3 2 5 10 9 5 4 6 6 5 4 4 5 3 3 3 3 3 4 4 3 3 3 2 2 1 2 3 3 4 5 6 6 7 6 5 6 6 5 4 4 4 3 2 2
2 3 6 6 3 3 7 11 11 7 5 6 6 5 5 5 5 2 2 1 1 2 2 4 4 3 3 2 2 3 3 3 3 4 5 6 7 7 6 5 6 6 6 6 6 4 3 2 2
3 5 6 5 3 4 6 11 9 7 6 7 6 5 5 3 3 2 1 0 0 2 3 3 4 4 4 4 3 3 4 3 3 3 5 6 7 7 7 7 6 6 5 6 6 4 3 2 3
5 6 6 5 5 3 4 8 6 4 3 3 3 3 2 3 2 1 1 0 0 1 2 3 3 3 4 3 2 1 0 1 2 3 3 5 6 7 7 8 7 6 6 6 7 6 6 4 3
5 4 5 4 2 4 0 6 7 3 3 2 2 1 1 1 0 0 1 1 2 2 2 2 3 3 3 3 3 4 4 4 4 3 4 4 6 6 6 7 7 6 6 6 6 6 5 5 4
4 2 2 2 2 3 2 4 9 2 3 4 3 2 2 2 1 2 2 2 2 2 1 2 2 3 3 3 4 4 4 3 2 2 4 4 5 6 6 6 6 6 5 6 6 6 5 5 5
1 2 3 2 2 4 5 5 7 3 4 3 3 2 2 2 1 2 3 2 3 3 2 2 2 3 3 3 4 4 4 4 3 3 4 4 4 4 6 6 6 6 5 6 6 6 7 6 5
2 4 3 3 2 6 3 4 8 5 3 3 3 2 2 1 2 2 3 3 3 3 3 3 3 3 3 3 4 4 5 5 5 5 5 4 4 4 6 6 6 6 6 6 5 6 6 7 7
2 4 5 4 5 5 2 6 7 3 1 1 1 1 1 2 2 3 3 3 3 3 3 3 3 4 4 3 4 3 4 3 3 4 4 4 4 4 5 6 6 6 6 6 5 5 5 5 6
3 3 3 3 1 4 6 6 6 1 1 2 2 2 2 2 3 3 4 3 3 4 4 3 3 4 4 3 3 3 3 3 4 4 3 3 3 3 5 5 5 6 6 6 6 5 5 5 6
3 4 3 3 2 5 6 5 5 3 2 2 2 2 3 3 3 4 4 3 4 4 3 3 3 4 4 3 3 3 3 3 3 3 3 3 3 3 3 4 5 5 5 5 5 5 5 6 6
2 2 3 3 3 4 5 7 4 4 2 2 3 3 3 3 4 4 4 4 4 4 3 3 3 3 3 3 3 3 3 3 3 2 3 3 3 3 4 4 5 5 5 5 5 5 5 7 6
4 4 5 4 4 4 3 9 3 2 1 1 3 4 4 4 4 4 4 4 3 3 3 3 2 2 3 3 2 2 3 3 2 2 3 2 3 3 3 4 4 5 5 5 6 6 6 7 8
Wind_Direction
332 339 42 56 59 57 238 247 237 260 274 265 96 103 116 121 146 172 168 147 139 148 157 157 151 147 142 139 134 130 133 133 131 130 129 127 126 123 119 117 115 115 114 113 111 107 104 103 101
337 355 52 63 103 177 252 245 230 236 222 190 47 79 85 89 108 118 136 149 144 148 152 154 149 148 145 140 138 135 133 134 134 134 131 130 128 125 123 120 117 116 116 116 114 111 108 105 103
340 46 81 88 153 193 221 228 219 248 270 224 69 51 104 141 149 158 167 148 142 146 150 157 148 147 146 142 141 140 137 135 136 136 135 133 129 126 125 123 120 119 118 117 116 115 113 110 108
49 51 62 104 218 223 216 227 231 273 328 11 108 60 60 1 173 170 146 144 140 145 148 154 148 149 147 145 143 143 142 141 139 138 138 136 133 131 128 125 122 122 122 120 118 117 117 115 110
62 83 97 223 238 243 243 244 241 246 261 325 94 113 357 325 79 127 138 144 143 144 146 153 146 149 149 148 147 148 145 145 143 141 141 139 137 135 131 129 128 129 129 125 124 120 119 121 116
66 84 138 222 236 244 252 253 247 240 258 310 103 126 249 306 99 128 134 144 143 143 145 152 147 148 150 149 151 149 152 150 147 145 141 141 140 137 135 136 134 133 133 131 128 126 119 123 119
118 129 188 213 230 244 248 249 193 210 237 262 146 127 206 295 95 123 128 129 133 136 139 146 149 150 147 147 149 153 153 153 149 146 143 140 141 142 140 137 138 137 135 132 129 129 129 126 117
137 126 200 221 216 235 254 241 224 196 227 302 117 148 194 222 149 103 116 117 123 129 139 145 144 144 150 154 149 149 149 152 149 145 142 140 141 144 142 138 140 139 137 136 134 133 135 126 113
105 104 213 220 210 230 301 335 318 291 95 7 51 176 194 146 117 104 110 116 127 139 152 151 148 146 150 155 153 149 152 153 152 149 144 139 139 141 143 140 139 142 140 138 135 135 128 116 107
111 180 221 214 210 229 304 308 300 2 9 345 349 1 77 117 119 124 144 155 155 165 173 165 159 156 153 158 153 155 156 157 156 152 151 146 140 144 143 145 145 144 142 142 140 135 121 96 75
161 200 219 236 266 261 304 315 317 160 241 220 210 197 155 136 135 152 172 178 178 176 178 178 171 163 158 158 153 155 157 156 160 158 157 149 140 144 139 141 148 149 145 138 139 126 103 99 90
179 235 228 237 267 249 260 287 302 243 233 230 206 175 160 163 173 178 189 198 184 173 184 184 176 169 166 161 161 165 168 169 172 175 166 158 156 158 157 156 155 153 149 144 138 136 140 147 156
224 260 277 267 286 258 263 259 260 258 253 246 150 144 173 199 215 210 198 199 191 190 190 187 175 173 170 166 170 173 181 184 184 182 178 170 168 170 167 169 167 168 160 159 158 158 161 177 188
215 258 283 279 279 285 268 274 258 257 242 225 201 208 211 213 218 223 222 212 205 204 199 185 177 177 171 175 178 183 187 185 184 188 187 178 175 174 172 175 174 176 174 171 170 171 171 185 177
358 331 313 276 243 259 311 285 241 248 230 248 248 234 230 228 224 224 217 210 205 209 205 184 180 173 173 182 186 183 189 185 189 196 193 185 179 177 176 179 182 184 179 171 162 163 158 168 175
34 15 283 278 206 202 150 261 261 251 212 248 256 250 243 241 231 229 213 203 201 201 198 189 181 179 183 186 190 189 192 189 192 196 199 195 187 181 177 181 188 184 175 173 172 169 165 178 182
25 232 250 283 230 180 196 253 268 279 238 246 254 254 246 248 252 245 224 201 194 199 196 186 183 187 198 198 192 189 194 198 197 196 200 201 195 186 180 185 188 179 175 178 183 178 173 178 185
215 222 245 247 257 229 242 257 272 268 239 245 254 254 248 246 252 247 230 209 190 195 193 188 190 194 196 194 189 188 206 214 202 202 206 201 196 191 185 184 186 180 177 181 184 179 183 179 175
205 229 256 260 274 271 256 267 273 268 253 248 248 250 250 249 257 249 236 230 201 191 194 195 193 201 189 184 194 197 209 226 219 208 208 205 197 192 188 187 187 187 188 189 185 176 178 177 146
238 255 268 286 297 271 274 276 273 260 244 235 233 239 243 250 286 299 292 302 223 213 209 209 204 198 198 202 203 207 206 213 223 221 213 209 201 195 193 190 191 192 191 189 189 175 172 186 169
242 231 246 267 316 313 309 294 274 270 262 259 245 244 242 218 228 264 347 345 328 258 232 230 226 215 210 210 199 206 215 235 226 230 224 220 208 200 196 195 192 193 193 197 196 189 181 188 201
250 243 243 257 288 285 242 284 281 268 301 298 289 293 290 299 314 300 329 317 287 258 258 260 242 229 221 205 196 195 208 222 231 223 225 227 212 205 199 196 194 194 197 201 203 196 191 178 194
229 267 253 241 219 292 245 232 281 301 272 265 258 261 272 277 275 297 287 278 286 276 263 266 268 253 235 218 210 205 222 232 238 229 226 222 218 210 203 199 194 195 199 201 202 201 196 191 193
215 36 29 49 85 265 231 201 274 251 244 261 254 262 277 295 319 317 314 315 322 329 312 289 282 269 252 233 222 212 218 230 230 233 227 223 219 215 208 202 196 198 201 203 203 205 203 202 199
72 80 27 355 320 251 228 214 251 253 245 235 246 261 284 323 327 322 324 323 320 327 322 308 289 280 267 246 236 228 224 220 220 224 222 220 221 222 211 204 202 204 207 205 204 205 209 206 202
196 147 162 206 237 278 268 235 251 256 256 231 205 243 341 343 339 331 319 311 308 304 300 297 290 284 278 260 253 247 236 228 233 230 222 223 223 222 215 209 206 208 207 207 204 208 213 210 208
157 197 180 162 242 273 266 274 290 236 8 24 17 10 342 328 327 321 316 309 301 293 281 271 274 282 278 265 262 252 241 231 237 235 223 223 231 228 215 214 211 210 208 208 206 210 212 210 212
159 156 114 146 199 260 277 262 251 260 299 317 314 303 306 315 316 312 311 305 299 289 284 273 258 269 272 258 248 257 254 247 244 229 223 227 226 220 218 218 214 214 213 213 212 212 212 212 215
159 160 158 166 183 196 265 268 234 216 228 270 278 279 289 298 300 301 305 304 301 302 300 289 282 280 277 266 258 264 266 265 249 230 231 227 225 218 218 224 218 216 217 215 209 211 210 212 214
194 190 166 179 230 207 226 268 275 210 233 311 322 313 303 298 297 295 300 307 310 310 316 308 295 278 270 262 258 259 264 265 252 248 242 228 225 219 223 225 220 221 220 217 211 212 212 211 213